Date String (YYYY-MM-DD hh:mm:ss) UTC,Instrument flags,absolute air pressure of the measurement (hPa),sample flow rate (lpm),inlet stack bypass flow (lpm),air temperature of the measurement (°C),ambient temperature measured by the external sensor (°C),aerosol sample conditioner tube jacket temperature (°C),OPC LED temperature (°C),internal box temperature (°C),relative humidity of the measurement (%),span deviation,mass concentration of particles derived from Lorenz-Mie calculation of OPC scattering (μg/m³),mass concentration of particles derived from Lorenz-Mie calculation of OPC scattering (μg/m³),mass concentration of particles derived from Lorenz-Mie calculation of OPC scattering (μg/m³)
DateTimeUTC,F1_M11,P_M11,Q1_M11,Q2_M11,T1_M11,T2_M11,T3_M11,T4_M11,T5_M11,U1_M11,ZSPAN_M11,X0_M11,X2_M11,X1_M11
2024-04-23 07:00:00,SystemResetWarning,0825.4,4.99,000.00,026.2,025.4,000.0,034.6,028.0,016.5,0000.0,0009.06,0003.50,0002.47
2024-04-23 07:01:00,SystemResetWarning,0825.3,4.99,000.00,026.2,025.4,000.0,034.6,028.0,016.1,0000.0,0008.54,0003.53,0002.48
2024-04-23 07:02:00,SystemResetWarning,0825.3,5.00,000.00,026.2,025.5,000.0,034.6,028.0,015.9,0000.0,0008.55,0003.54,0002.46
2024-04-23 07:03:00,SystemResetWarning,0825.3,5.00,000.00,026.2,025.5,000.0,034.6,028.0,015.8,0000.0,0008.65,0003.54,0002.45
2024-04-23 07:04:00,SystemResetWarning,0825.3,5.01,000.00,026.2,025.5,000.0,034.6,028.0,015.6,0000.0,0009.00,0003.54,0002.42
2024-04-23 07:05:00,SystemResetWarning,0825.2,5.00,000.00,026.2,025.5,000.0,034.6,028.1,015.3,0000.0,0009.00,0003.53,0002.41
2024-04-23 07:06:00,SystemResetWarning,0825.3,5.00,000.00,026.2,025.5,000.0,034.6,028.1,015.2,0000.0,0008.96,0003.50,0002.39
2024-04-23 07:07:00,SystemResetWarning,0825.4,5.00,000.00,026.2,025.5,000.0,034.6,028.1,014.9,0000.0,0009.45,0003.53,0002.40
2024-04-23 07:08:00,SystemResetWarning,0825.4,5.00,000.00,026.3,025.5,000.0,034.7,028.1,015.1,0000.0,0009.67,0003.54,0002.40
2024-04-23 07:09:00,SystemResetWarning,0825.5,5.00,000.00,026.3,025.5,000.0,034.7,028.1,015.1,0000.0,0009.44,0003.53,0002.39
2024-04-23 07:10:00,SystemResetWarning,0825.5,5.00,000.00,026.3,025.6,000.0,034.7,028.1,015.0,0000.0,0009.03,0003.53,0002.39
2024-04-23 07:11:00,SystemResetWarning,0825.5,4.99,000.00,026.3,025.6,000.0,034.7,028.1,014.7,0000.0,0008.29,0003.52,0002.39
2024-04-23 07:12:00,SystemResetWarning,0825.5,5.00,000.00,026.3,025.6,000.0,034.7,028.1,014.6,0000.0,0008.36,0003.52,0002.38
2024-04-23 07:13:00,SystemResetWarning,0825.5,5.00,000.00,026.3,025.6,000.0,034.7,028.1,014.7,0000.0,0008.71,0003.49,0002.38
2024-04-23 07:14:00,SystemResetWarning,0825.5,5.02,000.00,026.3,025.6,000.0,034.7,028.1,015.1,0000.0,0008.77,0003.52,0002.39
2024-04-23 07:15:00,SystemResetWarning,0825.4,4.99,000.00,026.3,025.6,000.0,034.7,028.2,015.3,0000.0,0008.40,0003.50,0002.39
2024-04-23 07:16:00,SystemResetWarning,0825.4,4.99,000.00,026.3,025.6,000.0,034.7,028.2,014.9,0000.0,0009.27,0003.52,0002.40
2024-04-23 07:17:00,SystemResetWarning,0825.4,5.00,000.00,026.4,025.6,000.0,034.7,028.2,015.5,0000.0,0010.29,0003.55,0002.40
2024-04-23 07:18:00,SystemResetWarning,0825.4,5.00,000.00,026.4,025.6,000.0,034.8,028.2,015.7,0000.0,0011.08,0003.51,0002.39
2024-04-23 07:19:00,SystemResetWarning,0825.3,5.01,000.00,026.4,025.6,000.0,034.8,028.2,015.9,0000.0,0010.95,0003.52,0002.39
2024-04-23 07:20:00,SystemResetWarning,0825.3,5.00,000.00,026.4,025.6,000.0,034.8,028.2,016.2,0000.0,0011.77,0003.55,0002.40
2024-04-23 07:21:00,SystemResetWarning,0825.3,4.99,000.00,026.4,025.6,000.0,034.8,028.2,016.2,0000.0,0011.70,0003.52,0002.40
2024-04-23 07:22:00,SystemResetWarning,0825.4,4.99,000.00,026.4,025.6,000.0,034.8,028.2,016.1,0000.0,0012.59,0003.53,0002.41
2024-04-23 07:23:00,SystemResetWarning,0825.5,5.00,000.00,026.4,025.6,000.0,034.8,028.2,016.3,0000.0,0012.89,0003.53,0002.43
2024-04-23 07:24:00,SystemResetWarning,0825.6,5.00,000.00,026.4,025.6,000.0,034.8,028.2,016.4,0000.0,0012.76,0003.59,0002.47
2024-04-23 07:25:00,SystemResetWarning,0825.7,5.00,000.00,026.4,025.6,000.0,034.8,028.2,016.4,0000.0,0013.16,0003.58,0002.49
2024-04-23 07:26:00,SystemResetWarning,0825.7,5.00,000.00,026.4,025.6,000.0,034.8,028.2,016.6,0000.0,0013.61,0003.62,0002.53
2024-04-23 07:27:00,SystemResetWarning,0825.8,5.00,000.00,026.4,025.6,000.0,034.8,028.2,016.7,0000.0,0014.00,0003.70,0002.58
2024-04-23 07:28:00,SystemResetWarning,0825.8,5.00,000.00,026.4,025.6,000.0,034.8,028.2,016.8,0000.0,0013.84,0003.70,0002.62
2024-04-23 07:29:00,SystemResetWarning,0825.9,5.01,000.00,026.4,025.6,000.0,034.8,028.2,016.8,0000.0,0014.19,0003.74,0002.65
2024-04-23 07:30:00,SystemResetWarning,0825.9,5.00,000.00,026.4,025.7,000.0,034.8,028.2,016.9,0000.0,0013.85,0003.73,0002.69
2024-04-23 07:31:00,SystemResetWarning,0825.8,5.01,000.00,026.4,025.7,000.0,034.9,028.2,016.9,0000.0,0013.21,0003.71,0002.70
2024-04-23 07:32:00,SystemResetWarning,0825.8,5.00,000.00,026.4,025.7,000.0,034.9,028.2,016.8,0000.0,0013.63,0003.71,0002.72
2024-04-23 07:33:00,SystemResetWarning,0825.8,4.99,000.00,026.4,025.7,000.0,034.9,028.3,016.7,0000.0,0013.04,0003.75,0002.73
2024-04-23 07:34:00,SystemResetWarning,0825.7,5.00,000.00,026.4,025.7,000.0,034.9,028.3,016.7,0000.0,0012.79,0003.76,0002.74
2024-04-23 07:35:00,SystemResetWarning,0825.7,4.99,000.00,026.4,025.7,000.0,034.9,028.3,016.6,0000.0,0013.05,0003.77,0002.73
2024-04-23 07:36:00,SystemResetWarning,0825.6,5.01,000.00,026.5,025.7,000.0,034.9,028.3,016.6,0000.0,0013.00,0003.77,0002.73
2024-04-23 07:37:00,SystemResetWarning,0825.6,5.01,000.00,026.5,025.7,000.0,034.9,028.3,016.5,0000.0,0012.87,0003.73,0002.72
2024-04-23 07:38:00,SystemResetWarning,0825.7,4.99,000.00,026.5,025.7,000.0,034.9,028.3,016.5,0000.0,0011.93,0003.67,0002.70
2024-04-23 07:39:00,SystemResetWarning,0825.7,4.99,000.00,026.5,025.7,000.0,034.9,028.3,016.5,0000.0,0012.11,0003.67,0002.68
2024-04-23 07:40:00,SystemResetWarning,0825.7,4.99,000.00,026.5,025.7,000.0,034.9,028.3,016.2,0000.0,0010.88,0003.73,0002.68
2024-04-23 07:41:00,SystemResetWarning,0825.7,5.00,000.00,026.5,025.7,000.0,034.9,028.3,016.1,0000.0,0011.02,0003.74,0002.66
2024-04-23 07:42:00,SystemResetWarning,0825.7,5.00,000.00,026.5,025.7,000.0,034.9,028.3,016.1,0000.0,0011.69,0003.76,0002.66
2024-04-23 07:43:00,SystemResetWarning,0825.7,5.00,000.00,026.5,025.7,000.0,034.9,028.3,016.0,0000.0,0011.34,0003.78,0002.66
2024-04-23 07:44:00,SystemResetWarning,0825.7,5.00,000.00,026.5,025.7,000.0,034.9,028.3,015.8,0000.0,0011.54,0003.77,0002.64
2024-04-23 07:45:00,SystemResetWarning,0825.7,5.01,000.00,026.5,025.7,000.0,034.9,028.3,016.0,0000.0,0012.21,0003.78,0002.64
2024-04-23 07:46:00,SystemResetWarning,0825.8,5.01,000.00,026.5,025.7,000.0,035.0,028.3,016.4,0000.0,0012.87,0003.75,0002.63
2024-04-23 07:47:00,SystemResetWarning,0825.8,5.00,000.00,026.5,025.7,000.0,035.0,028.3,016.5,0000.0,0012.64,0003.78,0002.67
2024-04-23 07:48:00,SystemResetWarning,0825.8,5.00,000.00,026.5,025.7,000.0,035.0,028.3,017.1,0000.0,0012.51,0003.85,0002.75
2024-04-23 07:49:00,SystemResetWarning,0825.8,5.00,000.00,026.5,025.7,000.0,035.0,028.3,017.5,0000.0,0012.58,0003.86,0002.84
2024-04-23 07:50:00,SystemResetWarning,0825.9,5.01,000.00,026.5,025.7,000.0,035.0,028.3,017.4,0000.0,0012.32,0003.96,0002.97
2024-04-23 07:51:00,SystemResetWarning,0825.9,5.00,000.00,026.5,025.7,000.0,035.0,028.3,017.4,0000.0,0012.91,0003.98,0003.05
2024-04-23 07:52:00,SystemResetWarning,0825.9,5.00,000.00,026.5,025.7,000.0,035.0,028.3,017.4,0000.0,0013.35,0004.01,0003.11
2024-04-23 07:53:00,SystemResetWarning,0826.0,5.00,000.00,026.5,025.7,000.0,035.0,028.3,017.5,0000.0,0012.66,0004.09,0003.14
2024-04-23 07:54:00,SystemResetWarning,0826.1,4.99,000.00,026.5,025.7,000.0,035.0,028.3,017.8,0000.0,0012.66,0004.13,0003.17
2024-04-23 07:55:00,SystemResetWarning,0826.3,5.00,000.00,026.5,025.7,000.0,035.0,028.3,018.3,0000.0,0012.59,0004.22,0003.24
2024-04-23 07:56:00,SystemResetWarning,0826.2,5.00,000.00,026.5,025.7,000.0,035.0,028.3,018.7,0000.0,0012.06,0004.30,0003.30
2024-04-23 07:57:00,SystemResetWarning,0826.3,5.00,000.00,026.5,025.7,000.0,035.0,028.3,018.4,0000.0,0011.17,0004.36,0003.37
2024-04-23 07:58:00,SystemResetWarning,0826.3,5.00,000.00,026.5,025.8,000.0,035.0,028.3,017.9,0000.0,0011.76,0004.40,0003.40
2024-04-23 07:59:00,SystemResetWarning,0826.3,5.00,000.00,026.5,025.8,000.0,035.0,028.3,017.0,0000.0,0012.93,0004.40,0003.40
